Regional Weather Roundup
Issued by NWS

Home | Current Version | Previous Version | Text Only | Print | Product List | Glossary Off
Versions: 1 2 3 4 5 6 7 8 9 10 11 12 13 14 15 16 17 18 19 20 21 22 23 24 25 26 27

000
ASUS45 KCYS 231410
RWRWY

WYOMING REGIONAL WEATHER ROUNDUP
NATIONAL WEATHER SERVICE CHEYENNE WY
800 AM MDT MON APR 23 2018

NOTE:  "FAIR" INDICATES FEW OR NO CLOUDS BELOW 12,000 FEET
WITH NO SIGNIFICANT WEATHER AND/OR OBSTRUCTIONS TO VISIBILITY.

WYZ001-231500-
YELLOWSTONE NATIONAL PARK

CITY           SKY/WX    TMP DP  RH WIND       PRES   REMARKS
LK YELLOWSTONE   N/A     31  31 100 CALM      30.11F
W YELLOWSTONE  NOT AVBL

$$
WYZ002>013-054>058-071-098>099-231500-
NORTHERN WYOMING

CITY           SKY/WX    TMP DP  RH WIND       PRES   REMARKS
JACKSON        CLOUDY    35  34  96 CALM      30.11S
CODY           LGT RAIN  37  33  85 N16       30.18R WCI  28
GREYBULL       NOT AVBL
WORLAND        FAIR      43  34  70 NW15      30.11R
SHERIDAN       FAIR      46  35  65 NW23      30.12R
BUFFALO        FAIR      45  30  55 N28G37    30.07R
GILLETTE       PTSUNNY   46  40  79 NE3       30.05R
HULETT         FAIR      45  37  76 N3        30.10S
NEWCASTLE      FAIR      48  36  61 S8        30.06F

$$
WYZ014>020-022>026-101>103-231500-
CENTRAL WYOMING

CITY           SKY/WX    TMP DP  RH WIND       PRES   REMARKS
BIG PINEY      LGT RAIN  36  35  96 SE9       30.11F WCI  29
PINEDALE       MIX PCPN  34  34 100 NE10G18   30.13F WCI  26
DUBOIS         MIX PCPN  32  32 100 NW6       30.10S WCI  26
LANDER         PTSUNNY   47  30  51 N3        30.05R
RIVERTON       CLOUDY    44  28  53 N17G25    30.04R
CASPER         FAIR      42  37  82 E3        30.02R
DOUGLAS        PTSUNNY   45  40  82 SE14G21   30.04S

$$
WYZ021-027>030-104>119-231500-
SOUTHERN WYOMING

CITY           SKY/WX    TMP DP  RH WIND       PRES   REMARKS
EVANSTON       CLOUDY    37  36  96 S10       30.15F WCI  30
KEMMERER       FAIR      34  32  93 W12       30.14S WCI  25
FORT BRIDGER   LGT RAIN  37  37 100 W14       30.21R WCI  29
ROCK SPRINGS   CLOUDY    46  27  47 W23G29    30.13R
DIXON          FAIR      45  31  56 E7        30.10S
RAWLINS          N/A    N/A N/A N/A MISG      30.07F
SARATOGA       FAIR      46  30  53 SE14      30.10S
LARAMIE        FAIR      44  36  73 S9        30.11S
CHEYENNE       FAIR      45  37  73 SW6       30.10S
TORRINGTON     FAIR      41  38  89 SE10      30.08R
PINE BLUFFS    FAIR      37  36  93 CALM      30.11S

$$




USA.gov is the U.S. government's official web portal to all federal, state and local government web resources and services.